This demonstration page uses our WeatherBlox Daily Observations layout. Learn more.

Left ArrowRight Arrow

41.55636, -103.73856

Hourly Observations for September 28, 2015

Temp ( °F °C ) Dew Point ( °F °C ) Humidity (%) Winds ( mph kmh ) Pressure ( in mb ) Visibility ( mi km ) Precip ( " mm )
12:53 am 00:53 Clear 58 14.4 51 10.6 78 78 NNW 5 7 29.78 1009 10 16.0934 0 0
1:53 am 01:53 Clear 61 16.1 51 10.6 70 70 N 14 22 29.79 1009 10 16.0934 0 0
2:53 am 02:53 Clear 61 16.1 54 12.2 78 78 NE 13 20 29.79 1009 10 16.0934 0 0
3:53 am 03:53 Clear 61 16.1 54 12.2 78 78 Calm 29.8 1009 10 16.0934 0 0
4:53 am 04:53 Clear 59 15 53 11.7 81 81 E 5 7 29.83 1010 10 16.0934 0 0
5:53 am 05:53 Clear 58 14.4 52 11.1 81 81 ESE 5 7 29.86 1011 10 16.0934 0 0
6:53 am 06:53 Sunny 57 13.9 52 11.1 83 83 Calm 29.9 1012 10 16.0934 0 0
7:53 am 07:53 Sunny 58 14.4 53 11.7 84 84 NNW 6 9 29.95 1014 10 16.0934 0 0
8:53 am 08:53 Sunny 62 16.7 54 12.2 75 75 NE 6 9 29.97 1015 10 16.0934 0 0
9:53 am 09:53 Sunny 64 17.8 54 12.2 70 70 undefined N/A 29.98 1015 10 16.0934 0 0
10:53 am 10:53 Sunny 69 20.6 53 11.7 57 57 E 14 22 29.97 1015 10 16.0934 0 0
11:53 am 11:53 Sunny 73 22.8 52 11.1 48 48 ESE 14 22 29.95 1014 10 16.0934 0 0
12:53 pm 12:53 Sunny 75 23.9 49 9.4 40 40 E 16 26 29.93 1014 10 16.0934 0 0
1:53 pm 13:53 Partly Cloudy 76 24.4 49 9.4 39 39 undefined N/A 29.94 1014 10 16.0934 0 0
2:53 pm 14:53 Cloudy 73 22.8 50 10 44 44 NE 7 11 29.95 1014 10 16.0934 0 0
3:53 pm 15:53 Mostly Cloudy 66 18.9 52 11.1 61 61 NNE 20 31 29.98 1015 10 16.0934 0 0
4:53 pm 16:53 Sunny 66 18.9 53 11.7 63 63 NE 15 24 29.96 1014 10 16.0934 0 0
5:53 pm 17:53 Sunny 64 17.8 54 12.2 70 70 NE 10 17 29.99 1016 10 16.0934 0 0
6:53 pm 18:53 Clear 59 15 54 12.2 83 83 ENE 10 17 30.02 1017 10 16.0934 0 0
7:13 pm 19:13 Mostly Cloudy 59 15 54 12.2 83 83 E 8 13 29.97 1015 10 16.0934 0 0
7:53 pm 19:53 Cloudy 59 15 54 12.2 83 83 E 12 19 30.04 1017 10 16.0934 0 0
8:18 pm 20:18 Cloudy 57 14 54 12 88 88 E 9 15 30.03 1017 10 16.0934 0 0
8:53 pm 20:53 Cloudy 59 15 54 12.2 83 83 E 9 15 30.05 1018 10 16.0934 0 0
9:27 pm 21:27 Cloudy 59 15 54 12.2 83 83 E 7 11 30 1016 10 16.0934 0 0
9:53 pm 21:53 Cloudy 59 15 54 12.2 83 83 E 9 15 30.05 1018 10 16.0934 0 0
10:08 pm 22:08 Cloudy 59 15 54 12 82 82 E 7 11 30 1016 10 16.0934 0 0
10:53 pm 22:53 Cloudy 59 15 55 12.8 87 87 E 8 13 30.06 1018 10 16.0934 0 0
11:14 pm 23:14 Cloudy 61 16 55 13 83 83 E 9 15 30 1016 10 16.0934 0 0
11:53 pm 23:53 Cloudy 59 15 54 12.2 83 83 E 10 17 30.06 1018 10 16.0934 0 0

Powered by AerisWeather